Location: Unspecified
(0.0000°N, 0.0000°E)
Time: 22:10:18
(UTC+00:00)

Diapason D-1A - Visible Passes

Search period start: 06 June 2023 00:00
Search period end: 16 June 2023 00:00
Orbit: 497 x 2338 km, 34.1° (Epoch: 05 June)

Date Brightness Start Highest point End Pass type
(mag) Time Alt. Az. Time Alt. Az. Time Alt. Az.
06 Jun 7.4 04:43:42 32° SW 04:45:21 65° SE 04:48:58 10° ENE visible
06 Jun 11.3 18:58:42 10° W 19:10:43 33° SSW 19:21:53 10° SSE visible
06 Jun 11.8 21:14:27 10° SSW 21:16:00 10° SSW 21:16:00 10° SSW visible
07 Jun 10.1 03:33:23 14° ESE 03:33:23 14° ESE 03:34:06 10° E visible
07 Jun 8.5 05:27:57 10° W 05:31:19 27° NW 05:34:30 10° NNE visible
07 Jun 11.5 19:49:48 10° WSW 19:58:37 19° SSW 20:05:32 12° S visible
08 Jun 7.2 04:17:11 87° ESE 04:17:11 87° ESE 04:20:54 10° NE visible
08 Jun 11.5 18:29:47 10° W 18:41:16 30° SSW 18:52:35 10° SSE visible
08 Jun 11.8 20:45:17 10° SSW 20:47:16 10° SSW 20:49:09 10° SSW visible
09 Jun 8.9 05:00:58 15° WNW 05:03:04 22° NW 05:06:00 10° NNE visible
09 Jun 11.6 19:21:01 10° WSW 19:29:28 18° SSW 19:37:32 10° SSE visible
10 Jun 8.9 03:50:34 35° NE 03:50:34 35° NE 03:52:49 10° NE visible
10 Jun 11.8 20:16:17 10° SSW 20:18:26 10° SSW 20:20:32 10° S visible
11 Jun 9.2 04:34:17 19° NW 04:34:44 19° NW 04:37:33 10° N visible
11 Jun 11.7 18:52:26 10° WSW 19:00:21 17° SSW 19:08:08 10° SSE visible
12 Jun 10.2 03:23:50 17° NE 03:23:50 17° NE 03:24:44 10° NE visible
12 Jun 11.8 19:47:30 10° SSW 19:49:36 10° SSW 19:51:41 10° S visible
13 Jun 9.7 04:07:28 16° NNW 04:07:28 16° NNW 04:09:10 10° N visible
13 Jun 11.8 18:24:05 10° SW 18:31:17 15° SSW 18:38:33 10° SSE visible
14 Jun 11.8 19:18:56 10° SSW 19:20:45 10° S 19:22:34 10° S visible
15 Jun 10.3 03:40:30 11° N 03:40:30 11° N 03:40:48 10° N visible
